TimeCDT,TemperatureF,Dew PointF,Humidity,Sea Level PressureIn,VisibilityMPH,Wind Direction,Wind SpeedMPH,Gust SpeedMPH,PrecipitationIn,Events,Conditions,WindDirDegrees,DateUTC
12:53 AM,60.1,46.0,60,30.17,10.0,ENE,3.5,-,N/A,,Clear,70,2011-10-05 05:53:00
1:53 AM,57.9,46.0,65,30.17,10.0,ENE,4.6,-,N/A,,Clear,60,2011-10-05 06:53:00
2:53 AM,57.0,46.0,67,30.16,10.0,NE,5.8,-,N/A,,Clear,50,2011-10-05 07:53:00
3:53 AM,55.9,46.0,69,30.16,10.0,ENE,4.6,-,N/A,,Clear,70,2011-10-05 08:53:00
4:53 AM,55.0,46.9,74,30.17,10.0,Calm,Calm,-,N/A,,Clear,0,2011-10-05 09:53:00
5:53 AM,53.6,46.4,77,30.19,10.0,Calm,Calm,-,N/A,,Clear,0,2011-10-05 10:53:00
6:53 AM,54.0,46.9,77,30.19,10.0,ENE,3.5,-,N/A,,Clear,60,2011-10-05 11:53:00
7:53 AM,54.0,46.0,75,30.20,10.0,Calm,Calm,-,N/A,,Clear,0,2011-10-05 12:53:00
8:53 AM,60.1,46.0,60,30.22,10.0,East,4.6,-,N/A,,Clear,80,2011-10-05 13:53:00
9:53 AM,66.2,46.4,49,30.22,10.0,NE,5.8,-,N/A,,Clear,50,2011-10-05 14:53:00
10:53 AM,73.9,45.0,35,30.19,10.0,NE,8.1,-,N/A,,Clear,50,2011-10-05 15:53:00
11:53 AM,75.9,43.0,31,30.18,10.0,East,4.6,-,N/A,,Clear,100,2011-10-05 16:53:00
12:53 PM,79.0,42.1,27,30.15,10.0,ESE,5.8,-,N/A,,Clear,120,2011-10-05 17:53:00
1:53 PM,82.4,39.2,21,30.13,10.0,ESE,10.4,-,N/A,,Clear,120,2011-10-05 18:53:00
2:53 PM,82.9,35.1,18,30.09,10.0,SE,4.6,16.1,N/A,,Clear,140,2011-10-05 19:53:00
3:53 PM,82.4,37.4,20,30.08,10.0,SE,10.4,-,N/A,,Clear,140,2011-10-05 20:53:00
4:53 PM,84.2,39.2,20,30.07,10.0,ESE,9.2,-,N/A,,Clear,110,2011-10-05 21:53:00
5:53 PM,80.6,41.0,24,30.06,10.0,ESE,8.1,-,N/A,,Clear,110,2011-10-05 22:53:00
6:53 PM,78.1,41.0,27,30.05,10.0,ESE,4.6,-,N/A,,Clear,120,2011-10-05 23:53:00
7:53 PM,73.9,42.1,32,30.06,10.0,East,5.8,-,N/A,,Clear,100,2011-10-06 00:53:00
8:53 PM,72.0,43.0,35,30.07,10.0,ESE,5.8,-,N/A,,Clear,110,2011-10-06 01:53:00
9:53 PM,69.1,46.0,44,30.08,10.0,ENE,4.6,-,N/A,,Clear,70,2011-10-06 02:53:00
10:53 PM,69.1,46.9,45,30.09,10.0,NNE,5.8,-,N/A,,Clear,20,2011-10-06 03:53:00
11:53 PM,66.0,48.0,52,30.09,10.0,NE,5.8,-,N/A,,Clear,50,2011-10-06 04:53:00